Regional Weather Roundup
Issued by NWS

Home | Current Version | Previous Version | Graphics & Text | Print | Product List | Glossary On
Versions: 1 2 3 4 5 6 7 8 9 10 11 12 13 14 15 16 17 18 19 20 21 22 23 24 25 26 27 28 29 30 31 32 33 34 35 36 37 38 39 40 41 42 43 44 45 46 47 48 49 50
000
ASUS43 KMPX 181801
RWRMN
WEATHER ROUNDUP FOR MINNESOTA
NATIONAL WEATHER SERVICE TWIN CITIES/CHANHASSEN MN
1200 PM CST MON DEC 18 2017


NOTE: "FAIR" INDICATES FEW OR NO CLOUDS BELOW 12,000 FEET WITH NO
SIGNIFICANT WEATHER AND/OR OBSTRUCTIONS TO VISIBILITY. N/A MEANS
CURRENT SKY AND/OR WEATHER CONDITIONS ARE NOT AVAILABLE.

MNZ060>063-068>070-181900-
   Twin Cities Metro

CITY           SKY/WX    TMP DP  RH WIND       PRES   REMARKS
TWIN CITIES    CLOUDY    35  28  75 SW10      29.74F WCI  27
6HR MIN TEMP:  24; 6HR MAX TEMP:  35;

ST PAUL        CLOUDY    34  28  79 SE9       29.75F WCI  27
CRYSTAL        CLOUDY    34  25  69 SW10      29.71F WCI  26
BLAINE         PTSUNNY   36  28  75 S12       29.71F
LAKEVILLE      CLOUDY    34  28  80 SW7       29.74F WCI  28
EDEN PRAIRIE   CLOUDY    34  27  75 S14       29.72F WCI  25
6HR MIN TEMP:  26; 6HR MAX TEMP:  35;

SOUTH ST PAUL  CLOUDY    35  28  74 S8        29.74F WCI  28
LAKE ELMO      FAIR      32  28  86 S13       29.74F WCI  22
$$
MNZ001>005-007-008-013>017-022>024-027-028-181900-
   Northwest Minnesota

CITY           SKY/WX    TMP DP  RH WIND       PRES   REMARKS
BEMIDJI        CLOUDY    31  27  86 SW7       29.54F WCI  24
HALLOCK        CLOUDY    34  30  86 S10       29.48F WCI  26
ROSEAU         CLOUDY    34  28  80 S13       29.46F WCI  25
WARROAD        CLOUDY    36  30  80 SW10      29.46S
THIEF RVR FALL LGT SNOW  28  28 100 SW16      29.52F FOG     WCI  17
CROOKSTON      CLOUDY    30  28  93 S10       29.54F WCI  21
FOSSTON        LGT SNOW  28  27  93 S13       29.56F WCI  18
DETROIT LAKES  CLOUDY    32  28  86 SW9       29.60F WCI  24
MOORHEAD       MOSUNNY   32  28  86 CALM      29.61F
PARK RAPIDS    CLOUDY    31  28  89 S8        29.58F WCI  23
$$
MNZ006-009>011-018-025>026-181900-
   North Central Minnesota

CITY           SKY/WX    TMP DP  RH WIND       PRES   REMARKS
BAUDETTE       LGT SNOW  32  30  92 SW10      29.47F FOG     WCI  24
FLAG ISLAND    CLOUDY    32  28  86 SW10      29.43F WCI  24
INTL FALLS     LGT SNOW  33  28  81 SW9       29.50F VSB 3/4 WCI  25
6HR MIN TEMP:  27; 6HR MAX TEMP:  33; 6HR PCP: TRACE;

WASKISH        CLOUDY    34  28  80 SW8       29.52F WCI  27
BIG FORK       CLOUDY    32  27  80 SW10      29.54F WCI  24
LONGVILLE      CLOUDY    30  28  93 S5        29.58F WCI  25
GRAND RAPIDS   CLOUDY    32  27  81 S9        29.60F WCI  24
CRANE LAKE     MOSUNNY   30  27  86 S5        29.54F WCI  25
ORR            CLOUDY    30  25  80 S9        29.52F WCI  22
COOK           CLOUDY    30  27  86 SW9       29.55F WCI  22
WALKER         CLOUDY    31  27  85 SW8       29.57F WCI  23
$$
MNZ012-019>021-037-181900-
   Northeast Minnesota

CITY           SKY/WX    TMP DP  RH WIND       PRES   REMARKS
DULUTH         CLOUDY    28  27  96 SW13      29.60F FOG     WCI  17
6HR MIN TEMP:  22; 6HR MAX TEMP:  28;

ELY            CLOUDY    28  27  93 SW8       29.55F WCI  20
HIBBING        CLOUDY    30  25  81 SW8       29.57F WCI  22
EVELETH        CLOUDY    30  24  77 SW14      29.59F WCI  19
DULUTH HARBOR  CLOUDY    32  28  86 SW17      29.64F WCI  21
TWO HARBORS    CLOUDY    34  28  80 SW8       29.60F HAZE    WCI  27
GRAND MARAIS     N/A     33  30  88 W15G23    29.61F WCI  23
G MARAIS ARPRT FOG       27  23  86 S3        29.55F VSB 3/4
$$
MNZ029>031-032-039>041-046>048-054>057-064-181900-
   West Central Minnesota

CITY           SKY/WX    TMP DP  RH WIND       PRES   REMARKS
FERGUS FALLS   CLOUDY    34  28  80 SW8       29.66F WCI  27
WHEATON        CLOUDY    37  28  70 SW10      29.66F
MORRIS         CLOUDY    37  30  75 SW9       29.64F
ALEXANDRIA     CLOUDY    33  28  81 SW10      29.63F WCI  25
ELBOW LAKE     PTSUNNY   33  31  90 W9        29.64F FOG     WCI  25
WADENA         CLOUDY    32  27  80 SW10      29.60F WCI  24
GLENWOOD       CLOUDY    34  28  80 SW12      29.64F WCI  25
APPLETON       CLOUDY    39  28  65 SW12      29.67F
BENSON         CLOUDY    37  28  70 W10       29.68F
ORTONVILLE     MOSUNNY   37  27  65 SW6       29.67F
MADISON        CLOUDY    45  28  53 W15G21    29.68F
WILLMAR        FAIR      39  30  70 SW12      29.70F
$$
MNZ033>034-036-042>043-049>051-058-059-181900-
   Central Minnesota

CITY           SKY/WX    TMP DP  RH WIND       PRES   REMARKS
ST CLOUD       CLOUDY    33  28  81 SW12      29.68F WCI  24
6HR MIN TEMP:  21; 6HR MAX TEMP:  33;

SAUK CENTRE    FAIR      32  28  84 SW7       29.65F WCI  26
PAYNESVILLE    CLOUDY    35  30  83 SW9       29.68F WCI  28
AITKIN         MOSUNNY   32  27  80 S8        29.61F WCI  25
PINE RIVER     CLOUDY    30  27  86 S8        29.64F WCI  23
BRAINERD       CLOUDY    32  27  81 SW12      29.63F WCI  23
STAPLES        CLOUDY    32  27  80 S9        29.62F WCI  24
LONG PRAIRIE   FAIR      32  28  86 S8        29.64F WCI  25
LITTLE FALLS   CLOUDY    32  25  74 S7        29.66S WCI  26
LITCHFIELD     CLOUDY    37  30  75 SW5       29.69F
BUFFALO        CLOUDY    34  27  77 S8        29.71F WCI  27
MAPLE LAKE     CLOUDY    36  30  79 S6        29.70F
HUTCHINSON     CLOUDY    36  31  81 SW10      29.72F
$$
MNZ037-044-045-052-053-181900-
   East Central Minnesota

CITY           SKY/WX    TMP DP  RH WIND       PRES   REMARKS
PRINCETON      CLOUDY    36  28  75 S8        29.68F
MORA           CLOUDY    32  27  80 SW9       29.69F WCI  24
CAMBRIDGE      CLOUDY    36  27  69 S7        29.69F
RUSH CITY      CLOUDY    33  27  77 S12       29.69F WCI  24
MOOSE LAKE     CLOUDY    32  27  80 S12       29.62F WCI  23
HINCKLEY       FAIR      32  28  86 S8        29.67F WCI  25
CLOQUET        CLOUDY    28  25  86 S9        29.61F FOG     WCI  20
MCGREGOR       CLOUDY    34  28  80 SW10      29.63F WCI  26
$$
MNZ071>073-080-081-089-090-097-098-181900-
   Southwest Minnesota

CITY           SKY/WX    TMP DP  RH WIND       PRES   REMARKS
MONTEVIDEO     CLOUDY    41  32  70 W7        29.69F
GRANITE FALLS  CLOUDY    42  31  65 S14       29.72F
CANBY          CLOUDY    42  28  58 SW15      29.70F
MARSHALL       MOSUNNY   42  28  57 SW18      29.72F
REDWOOD FALLS  CLOUDY    42  31  64 SW14      29.71F
OLIVIA         CLOUDY    39  32  75 SW12      29.69F
PIPESTONE      SUNNY     39  27  60 W16       29.73F
WINDOM           N/A     41  27  56 SW14      29.74F
WORTHINGTON    SUNNY     38  29  70 SW16      29.75F
JACKSON        CLOUDY    37  30  75 SW13      29.76F
SLAYTON        SUNNY     35  29  79 SW14      29.75F WCI  26
$$
MNZ065>067-074>077-082>085-091>093-181900-
   South Central Minnesota

CITY           SKY/WX    TMP DP  RH WIND       PRES   REMARKS
MANKATO        CLOUDY    36  29  75 SW10      29.75F
NEW ULM        CLOUDY    39  28  65 SW9       29.73F
ST JAMES       MOSUNNY   39  30  70 S13       29.75F
FAIRMONT       CLOUDY    38  30  73 SW14      29.77F
GLENCOE        CLOUDY    35  31  84 S8        29.72F WCI  28
FARIBAULT      CLOUDY    34  28  80 S7        29.75F WCI  28
OWATONNA       CLOUDY    36  30  80 S16       29.76F
WASECA         CLOUDY    34  30  86 S16       29.77F WCI  23
$$
MNZ078>079-086>088-094>096-181900-
   Southeast Minnesota

CITY           SKY/WX    TMP DP  RH WIND       PRES   REMARKS
ROCHESTER      CLOUDY    31  29  92 S12       29.77F WCI  22
6HR MIN TEMP:  27; 6HR MAX TEMP:  31;

RED WING       CLOUDY    34  27  75 S9        29.77F WCI  26
STANTON        CLOUDY    35  29  78 S10       29.74F WCI  27
DODGE CENTER   CLOUDY    30  30 100 S7        29.77F FOG     WCI  23
WINONA           N/A     34  30  86 S3        29.82F
PRESTON        CLOUDY    30  29  96 S8        29.80F FOG     WCI  22
$$
ABBREVIATIONS USED IN REMARKS
   TC - TEMPERATURES IN CELSIUS
  WCI - WIND CHILL INDEX
   HX - HEAT INDEX
  VSB - VISIBILITY
$$



USA.gov is the U.S. government's official web portal to all federal, state and local government web resources and services.